Location: Fredericksburg
(30.2750°N, 98.8720°W)
Time: 08:10:31
(UTC-05:00)

Amateur Radio Satellites - All Passes

Search period start: 26 July 2014 07:40
Search period end: 27 July 2014 07:40
Location: Fredericksburg, 30.2750°N, 98.8720°W

Satellite Date Start Highest point End Downlink Frequencies (MHz)
Time Altitude Azimuth
STRAND 1 26 Jul 08:03:05 08:08:06 55° 259° (W) 08:13:09 ?
Saudisat 1A 26 Jul 08:04:25 08:07:58 24° 111° (ESE) 08:11:33 436.775 MHz
MaSat-1 26 Jul 08:18:56 08:23:58 43° 64° (ENE) 08:28:40 437.345 MHz
SO-67 26 Jul 08:22:46 08:26:04 42° 99° (E) 08:29:22 435.3500 MHz FM
ISS 26 Jul 08:24:33 08:27:34 30° 41° (NE) 08:30:34 145.800 FM
JAS-2 26 Jul 08:51:26 08:56:19 28° 292° (WNW) 09:00:49 435.800 - 435.900 CW/SSB, 435.910 FM
HO-68 26 Jul 09:06:59 09:09:05 11° 93° (E) 09:11:10 435.675 MHz FM
PANSAT 26 Jul 09:19:09 09:22:58 65° 184° (S) 09:26:47 not established
KITSAT 1 26 Jul 09:21:06 09:26:36 20° 311° (NW) 09:32:09 435.175 FM
Saudisat 1A 26 Jul 09:43:49 09:47:26 25° 304° (NW) 09:51:04 436.775 MHz
MaSat-1 26 Jul 09:57:31 10:00:51 17° 260° (W) 10:04:02 437.345 MHz
ISS 26 Jul 10:01:52 10:04:04 17° 234° (SW) 10:06:16 145.800 FM
Oscar 11 26 Jul 10:13:17 10:14:57 12° 94° (E) 10:16:37 145.825 FM, Beacon 2401.500 USB
PCSat 26 Jul 10:39:41 10:42:53 16° 54° (NE) 10:46:03 145.825 MHz
HO-68 26 Jul 10:50:13 10:57:23 88° 286° (WNW) 11:04:31 435.675 MHz FM
UKube-1 26 Jul 10:58:29 11:02:51 80° 284° (WNW) 11:07:10 145.840 MHz, 145.915 MHz
PANSAT 26 Jul 10:59:27 11:02:58 34° 196° (SSW) 11:06:28 not established
Oscar 11 26 Jul 11:47:11 11:51:15 41° 286° (WNW) 11:55:19 145.825 FM, Beacon 2401.500 USB
Sapphire 26 Jul 11:47:33 11:52:54 60° 64° (ENE) 11:58:14 437.095 MHz 1200 baud AX-25 AFSK
FUNcube-1 26 Jul 12:00:05 12:04:16 89° 109° (ESE) 12:08:29 145.950 - 145.970 MHz USB
PCSat 26 Jul 12:21:19 12:26:38 59° 249° (WSW) 12:31:55 145.825 MHz
HO-68 26 Jul 12:41:14 12:44:03 13° 301° (WNW) 12:46:52 435.675 MHz FM
PANSAT 26 Jul 12:41:37 12:42:41 11° 206° (SSW) 12:43:45 not established
Oscar 16 26 Jul 13:30:06 13:33:47 20° 69° (ENE) 13:37:28 437.025 USB, Beacon 2401.1428
Sapphire 26 Jul 13:33:26 13:35:43 13° 257° (WSW) 13:38:01 437.095 MHz 1200 baud AX-25 AFSK
RS-15 26 Jul 13:41:10 13:51:39 46° 109° (ESE) 14:01:49 29.354 - 29.394 USB, Beacon 29.352 USB
AO-Echo 26 Jul 13:43:19 13:45:01 12° 65° (ENE) 13:46:43 ?
ITAMSAT 1 26 Jul 13:46:55 13:48:54 12° 65° (ENE) 13:50:52 435.822 SSB
SO-50 26 Jul 13:47:58 13:52:23 82° 297° (WNW) 13:56:54 436.795 FM
JAS-1B 26 Jul 14:03:01 14:08:58 21° 59° (ENE) 14:15:21 435.800 - 435.900 CW/SSB
AO-27 26 Jul 14:03:31 14:07:09 19° 68° (ENE) 14:10:47 436.795 MHz FM
Uribyol 2 26 Jul 14:05:04 14:08:52 21° 69° (ENE) 14:12:41 436.500 FM
UOSAT-12 26 Jul 14:26:57 14:29:08 13° 107° (ESE) 14:31:21 437.025 FM, 437.400 FM
Oscar 19 26 Jul 14:39:47 14:44:52 76° 258° (WSW) 14:49:59 437.125 CW, 437.150 USB
Oscar 10/S400 26 Jul 14:46:10 07:40:01 54° 215° (SW) 15:38:43 145.825 - 145.975 CW/USB, Beacon 145.810 USB
Oscar 16 26 Jul 15:08:12 15:12:51 35° 261° (W) 15:17:31 437.025 USB, Beacon 2401.1428
AO-Echo 26 Jul 15:17:52 15:23:05 70° 258° (WSW) 15:28:24 ?
ITAMSAT 1 26 Jul 15:22:37 15:27:47 64° 258° (WSW) 15:32:58 435.822 SSB
KITSAT 1 26 Jul 15:24:19 15:28:43 15° 46° (NE) 15:33:05 435.175 FM
TMSAT-1 26 Jul 15:25:48 15:30:33 35° 72° (ENE) 15:35:20 436.925 FM
AO-27 26 Jul 15:41:27 15:46:19 39° 261° (W) 15:51:11 436.795 MHz FM
Uribyol 2 26 Jul 15:43:18 15:48:03 36° 261° (W) 15:52:48 436.500 FM
Gurwin Techsat 1B 26 Jul 15:47:44 15:53:02 86° 77° (ENE) 15:58:22 435.225 FM
JAS-1B 26 Jul 15:49:49 15:58:05 82° 257° (WSW) 16:07:44 435.800 - 435.900 CW/SSB
AO-7 26 Jul 15:50:44 15:57:01 24° 61° (ENE) 16:03:18 29.400 - 29.500 MHz
RS-15 26 Jul 15:53:32 16:03:53 43° 306° (NW) 16:14:06 29.354 - 29.394 USB, Beacon 29.352 USB
UOSAT-12 26 Jul 16:04:26 16:08:48 46° 301° (WNW) 16:13:17 437.025 FM, 437.400 FM
OPAL 26 Jul 16:24:30 16:26:31 12° 96° (E) 16:28:32 ?
TMSAT-1 26 Jul 17:06:30 17:10:28 21° 264° (W) 17:14:27 436.925 FM
Uosat F 26 Jul 17:12:44 17:17:46 87° 256° (WSW) 17:22:51 435.120 FM
KITSAT 1 26 Jul 17:17:12 17:25:18 81° 64° (ENE) 17:33:21 435.175 FM
AO-7 26 Jul 17:40:52 17:49:06 63° 256° (WSW) 17:57:24 29.400 - 29.500 MHz
JAS-1B 26 Jul 17:46:33 17:49:55 13° 274° (W) 17:53:26 435.800 - 435.900 CW/SSB
OPAL 26 Jul 18:00:38 18:05:36 57° 287° (WNW) 18:10:37 ?
Hamsat 26 Jul 18:10:21 18:13:27 21° 71° (ENE) 18:16:33 145.90 MHz
Saudisat 1A 26 Jul 18:15:05 18:19:22 50° 60° (ENE) 18:23:37 436.775 MHz
JAS-2 26 Jul 18:53:16 19:01:01 64° 74° (ENE) 19:08:30 435.800 - 435.900 CW/SSB, 435.910 FM
KITSAT 1 26 Jul 19:15:27 19:19:43 15° 258° (WSW) 19:23:59 435.175 FM
Hamsat 26 Jul 19:45:58 19:49:15 22° 264° (W) 19:52:32 145.90 MHz
Saudisat 1A 26 Jul 19:57:16 19:58:27 11° 253° (WSW) 19:59:38 436.775 MHz
STRAND 1 26 Jul 20:19:29 20:24:36 83° 103° (ESE) 20:29:41 ?
SO-67 26 Jul 20:23:00 20:26:23 52° 260° (W) 20:29:46 435.3500 MHz FM
JAS-2 26 Jul 20:40:34 20:46:12 21° 266° (W) 20:51:46 435.800 - 435.900 CW/SSB, 435.910 FM
HO-68 26 Jul 21:12:37 21:19:08 39° 68° (ENE) 21:25:39 435.675 MHz FM
UKube-1 26 Jul 21:48:24 21:52:29 41° 74° (ENE) 21:56:35 145.840 MHz, 145.915 MHz
MaSat-1 26 Jul 22:04:50 22:08:22 49° 107° (ESE) 22:12:31 437.345 MHz
AO-40 26 Jul 22:24:39 04:51:56 50° 182° (S) 20:38:12 Beacon 2401.320
SO-50 26 Jul 22:25:44 22:29:18 21° 54° (NE) 22:32:53 436.795 FM
Oscar 11 26 Jul 22:36:06 22:40:23 72° 77° (ENE) 22:44:40 145.825 FM, Beacon 2401.500 USB
RS-15 26 Jul 22:49:24 22:58:55 32° 49° (NE) 23:08:39 29.354 - 29.394 USB, Beacon 29.352 USB
FUNcube-1 26 Jul 22:51:05 22:55:03 34° 74° (ENE) 22:58:56 145.950 - 145.970 MHz USB
HO-68 26 Jul 23:00:34 23:06:45 32° 262° (W) 23:12:59 435.675 MHz FM
Lituanica SAT-1 26 Jul 23:23:07 23:24:33 18° 318° (NW) 23:25:59 437.275 MHz beacon
UKube-1 26 Jul 23:27:00 23:28:48 12° 266° (W) 23:30:37 145.840 MHz, 145.915 MHz
ISS 26 Jul 23:27:15 23:29:15 15° 126° (SE) 23:31:15 145.800 FM
MaSat-1 26 Jul 23:45:16 23:46:12 11° 307° (NW) 23:47:09 437.345 MHz
SO-50 27 Jul 00:05:33 00:09:55 36° 248° (WSW) 00:14:20 436.795 FM
FUNcube-1 27 Jul 00:29:01 00:31:28 15° 265° (W) 00:33:53 145.950 - 145.970 MHz USB
UOSAT-12 27 Jul 00:39:39 00:43:51 31° 57° (ENE) 00:47:58 437.025 FM, 437.400 FM
Sapphire 27 Jul 00:42:19 00:45:49 18° 105° (ESE) 00:49:19 437.095 MHz 1200 baud AX-25 AFSK
RS-15 27 Jul 01:00:54 01:11:51 66° 248° (WSW) 01:23:18 29.354 - 29.394 USB, Beacon 29.352 USB
ISS 27 Jul 01:02:41 01:05:43 32° 319° (NW) 01:08:46 145.800 FM
PCSat 27 Jul 01:14:12 01:19:13 42° 109° (ESE) 01:24:17 145.825 MHz
Oscar 16 27 Jul 01:49:27 01:50:41 11° 93° (E) 01:51:55 437.025 USB, Beacon 2401.1428
UOSAT-12 27 Jul 02:20:15 02:23:46 21° 251° (WSW) 02:27:14 437.025 FM, 437.400 FM
Sapphire 27 Jul 02:23:40 02:28:48 45° 298° (WNW) 02:33:59 437.095 MHz 1200 baud AX-25 AFSK
Uribyol 2 27 Jul 02:25:29 02:26:49 11° 93° (E) 02:28:10 436.500 FM
Oscar 19 27 Jul 02:57:13 03:02:21 63° 101° (ESE) 03:07:28 437.125 CW, 437.150 USB
PCSat 27 Jul 02:58:45 03:02:45 21° 304° (NW) 03:06:47 145.825 MHz
Oscar 16 27 Jul 03:25:14 03:30:20 63° 285° (WNW) 03:35:26 437.025 USB, Beacon 2401.1428
AO-Echo 27 Jul 03:31:29 03:36:29 63° 101° (E) 03:41:17 ?
OPAL 27 Jul 03:34:52 03:36:39 12° 64° (ENE) 03:38:25 ?
ITAMSAT 1 27 Jul 03:41:24 03:46:35 76° 102° (ESE) 03:51:43 435.822 SSB
JAS-1B 27 Jul 03:43:50 03:52:38 50° 98° (E) 04:00:06 435.800 - 435.900 CW/SSB
TMSAT-1 27 Jul 03:47:57 03:52:03 23° 96° (E) 03:56:07 436.925 FM
AO-27 27 Jul 04:00:04 04:05:12 67° 285° (WNW) 04:10:19 436.795 MHz FM
Uribyol 2 27 Jul 04:01:31 04:06:35 62° 285° (WNW) 04:11:39 436.500 FM
Gurwin Techsat 1B 27 Jul 04:09:59 04:15:12 56° 101° (E) 04:20:22 435.225 FM
Oscar 19 27 Jul 04:39:10 04:41:06 12° 294° (WNW) 04:43:02 437.125 CW, 437.150 USB
OPAL 27 Jul 05:10:06 05:14:58 60° 257° (WSW) 05:19:51 ?
AO-Echo 27 Jul 05:13:11 05:14:35 11° 295° (WNW) 05:15:58 ?
Uosat F 27 Jul 05:26:31 05:31:20 47° 100° (E) 05:36:07 435.120 FM
TMSAT-1 27 Jul 05:27:14 05:31:56 33° 289° (WNW) 05:36:36 436.925 FM
JAS-1B 27 Jul 05:34:47 05:42:35 32° 296° (WNW) 05:49:29 435.800 - 435.900 CW/SSB
PANSAT 27 Jul 05:34:49 05:38:03 25° 160° (SSE) 05:41:17 not established
KITSAT 1 27 Jul 05:46:27 05:51:52 20° 103° (ESE) 05:57:17 435.175 FM
AO-7 27 Jul 05:48:58 05:57:15 67° 104° (ESE) 06:05:27 29.400 - 29.500 MHz
Gurwin Techsat 1B 27 Jul 05:51:58 05:54:37 14° 294° (WNW) 05:57:15 435.225 FM
Uosat F 27 Jul 07:06:52 07:09:40 15° 293° (WNW) 07:12:28 435.120 FM
Lituanica SAT-1 27 Jul 07:08:54 07:10:46 58° 227° (SW) 07:12:38 437.275 MHz beacon
PANSAT 27 Jul 07:14:10 07:17:58 57° 172° (S) 07:21:46 not established
STRAND 1 27 Jul 07:29:34 07:34:40 66° 75° (ENE) 07:39:46 ?
